THORAD AGENA D DEB, 5698

Orbit data source: Space-Track

THORAD AGENA D DEB, 5698 is space debris in SSO originally from a launch on Wed, 08 Apr 1970 UTC launched from the Air Force Western Test Range (AFWTR). Debris objects in space refer to the collection of defunct objects orbiting the Earth. Examples of debris include non-operational satellites, rocket bodies, and fragments generated from explosions, collisions, or faulty payload assembly.

Loading next visibility...
Identifier
5698, 1970-025MD
Orbit
SSO
Country
Flag of USUS
Related business
Manufacturer
Unknown
Mission
Spacecraft
Bus & Motor
Unknown
Mass
Unknown
Launch date (UTC)
1970-04-08 (56 years ago)
Launch vehicle
Unknown
Launch site
Air Force Western Test Range (AFWTR)
Object type
Payload
Rocket body
Debris
Shape & HBR
Unknown shape, 0.1 m
Radar Cross Section
Small (<0.1 m²)

Expand to show TLE details & history
Last TLE update: 11 hours ago

TLE from 11 hours ago
0 THORAD AGENA D DEB
1 05698U 70025MD  26127.12220193  .00000262  00000-0  40464-3 0  9991
2 05698  99.3455 336.7339 0009088  17.0661 103.9001 13.60349249584861
Epoch: 2026-05-07T02:55Z
TLE epoch observation values (Epoch: 2026-05-07T02:55:58.246Z)
Latitude
57.78907°
Longitude
-97.16882°
Altitude
1,045.7 km
Speed
7.334 km/s
True Right ascension
11h 27m 11s
True Declination
57° 38' 23"
Sunlit
Object was in daylight at epoch
Visualization orbit readout
Latitude
Unknown
Longitude
Unknown
Altitude
Unknown
Speed
Unknown
Apparent Right ascension
Unknown
Apparent Declination
Unknown
Sunlit
N/A
Visualization observer readout
Local Sidereal Time
21:41:49
Azimuth
Unknown
Elevation
Unknown
Doppler factor
Unknown
Orbital elements
Apogee altitude
1,038.427 km
Perigee altitude
1,024.959 km
Semi-major axis
7,409.83 km
Eccentricity
0.00091
Inclination
99.3455°
RAAN
336.7339°
Arg. of periapsis
17.0661°
True anomaly
104.00116°
Mean anomaly
103.9001°
Eccentric anomaly
103.95063°
Mean motion
3.40276 °/min
Orbital period
105.8 mins
BSTAR
0.00040464

Documentation

Showing up to 5 results
|